Location: Newark
(50.8086°N, 4.3114°E)
Time: 10:54:54
(UTC+00:00)

XW-2D - Pass Details

Date: 27 January 2020
Orbit: 507 x 528 km, 97.5° (Epoch: 26 February)

Event Time Altitude Azimuth Distance (km) Brightness Sun altitude
Rises 17:37:51 0° 200° (SSW) 2,642 ? -11.5°
Reaches altitude 10° 17:40:20 10° 216° (SW) 1,756 ? -11.9°
Maximum altitude 17:43:16 21° 267° (W) 1,206 ? -12.3°
Drops below altitude 10° 17:46:12 10° 318° (NW) 1,758 ? -12.8°
Sets 17:48:42 0° 335° (NNW) 2,647 ? -13.2°
